{"data":{"norad_id":42964,"epoch":"2026-09-20T04:51:06.776064Z","epoch_age_seconds":41111,"freshness":"FRESH","line1":"1 42964U 17061K   26263.20216176  .00000014  00000+0 -19915-5 0  9999","line2":"2 42964  86.4029 345.6835 0002595  86.2930 273.8563 14.34217800468472","mean_motion":14.342178,"eccentricity":0.0002595,"inclination_deg":86.4029,"raan_deg":345.6835,"arg_perigee_deg":86.293,"mean_anomaly_deg":273.8563,"bstar":-1.9915e-6,"rev_number":46847,"period_min":100.40316052415,"perigee_km":775.81005690716,"apogee_km":779.52391917696,"semimajor_km":7155.8039880421,"source":"CELESTRAK","updated_at":"2026-09-20T09:00:36.325966Z"}}